Lawton, OK

4:06 AM CDT on July 21, 2017 (GMT -0500)
Lawton-Fort Sill Regional

Weather History for KLAW - October, 2012

Change the Weather History Date:

Tuesday, October 30, 2012

  Actual Average Record
Temperature  
Mean Temperature 56 °F -  
Max Temperature 78 °F 68 °F 89 °F (2003)
Min Temperature 34 °F 47 °F 25 °F (1993)
Degree Days  
Heating Degree Days 9    
Growing Degree Days 6 (Base 50)    
Moisture  
Dew Point 36 °F    
Average Humidity 57    
Maximum Humidity 89    
Minimum Humidity 24    
Precipitation  
Precipitation 0.00 in - - ()
Sea Level Pressure  
Sea Level Pressure 30.01 in    
Wind  
Wind Speed 2 mph (SW)    
Max Wind Speed 9 mph    
Max Gust Speed -    
Visibility 10 miles    
Events      
Averages and records for this station are not official NWS values.
T = Trace of Precipitation, MM = Missing Value Source: NWS Daily Summary

Daily Weather History Graph

Daily Weather History Graph

Search for Another Location

Airport or City:

Trip Planner

Search our weather history database for the weather conditions in past years. The results will help you decide how hot, cold, wet, or windy it might be!

Date:

Astronomy

Oct. 30, 2012 Rise Set
Actual Time 7:52 AM CDT 6:41 PM CDT
Civil Twilight 7:26 AM CDT 7:07 PM CDT
Nautical Twilight 6:56 AM CDT 7:37 PM CDT
Astronomical Twilight 6:27 AM CDT 8:06 PM CDT
Moon 7:15 PM CDT (10/30) 8:37 AM CDT (10/30)
Length of Visible Light 11h 40m
Length of Day
10h 48m
Full, 99% of the Moon is Illuminated
Oct 30
Full
Nov 6
Last Quarter
Nov 13
New
Nov 20
First Quarter
Nov 28
Full

Hourly Weather History & Observations

Time (CDT) Temp. Dew Point Humidity Pressure Visibility Wind Dir Wind Speed Gust Speed Precip Events Conditions
12:53 AM 39.9 °F 35.1 °F 83% 30.10 in 10.0 mi Calm Calm - N/A   Clear
1:53 AM 37.9 °F 33.1 °F 83% 30.09 in 10.0 mi Calm Calm - N/A   Clear
2:53 AM 37.0 °F 33.1 °F 86% 30.09 in 10.0 mi Calm Calm - N/A   Clear
3:53 AM 37.0 °F 32.0 °F 82% 30.08 in 10.0 mi Calm Calm - N/A   Clear
4:53 AM 36.0 °F 32.0 °F 86% 30.07 in 10.0 mi Calm Calm - N/A   Clear
5:53 AM 36.0 °F 32.0 °F 86% 30.05 in 10.0 mi Calm Calm - N/A   Clear
6:53 AM 35.1 °F 30.9 °F 85% 30.06 in 10.0 mi Calm Calm - N/A   Clear
7:53 AM 34.0 °F 30.9 °F 89% 30.06 in 10.0 mi Calm Calm - N/A   Clear
8:53 AM 42.1 °F 36.0 °F 79% 30.07 in 6.0 mi Calm Calm - N/A   Haze
8:59 AM 42.8 °F 35.6 °F 76% 30.06 in 10.0 mi Calm Calm - N/A   Clear
9:53 AM 50.0 °F 36.0 °F 59% 30.06 in 10.0 mi Calm Calm - N/A   Clear
10:53 AM 59.0 °F 36.0 °F 42% 30.05 in 10.0 mi WSW 4.6 mph - N/A   Clear
11:53 AM 64.9 °F 37.0 °F 36% 30.05 in 10.0 mi SW 6.9 mph - N/A   Clear
12:53 PM 70.0 °F 37.9 °F 31% 30.01 in 10.0 mi SW 8.1 mph - N/A   Clear
1:53 PM 73.0 °F 39.0 °F 29% 29.98 in 10.0 mi SW 8.1 mph - N/A   Clear
2:53 PM 77.0 °F 39.0 °F 25% 29.96 in 10.0 mi SW 9.2 mph - N/A   Clear
3:53 PM 78.1 °F 39.0 °F 25% 29.94 in 10.0 mi WSW 8.1 mph - N/A   Clear
4:53 PM 78.1 °F 37.9 °F 24% 29.92 in 10.0 mi WSW 6.9 mph - N/A   Clear
5:53 PM 75.9 °F 39.0 °F 26% 29.92 in 10.0 mi SW 5.8 mph - N/A   Clear
6:53 PM 69.1 °F 39.0 °F 33% 29.91 in 10.0 mi South 8.1 mph - N/A   Clear
7:53 PM 64.9 °F 39.0 °F 39% 29.93 in 10.0 mi SSW 5.8 mph - N/A   Clear
8:53 PM 61.0 °F 39.0 °F 44% 29.93 in 10.0 mi West 4.6 mph - N/A   Clear
9:53 PM 57.0 °F 39.9 °F 53% 29.94 in 10.0 mi Calm Calm - N/A   Clear
10:53 PM 52.0 °F 39.0 °F 61% 29.94 in 10.0 mi Calm Calm - N/A   Clear
11:53 PM 48.9 °F 39.0 °F 69% 29.94 in 10.0 mi WNW 3.5 mph - N/A   Clear